Weather History for San Antonio, TX

Change the Weather History Date:

Friday, November 16, 2012

  Actual Average Record
Temperature  
Mean Temperature 61 °F 61 °F  
Max Temperature 70 °F 72 °F 86 °F (1938)
Min Temperature 51 °F 50 °F 26 °F (1970)
Degree Days  
Heating Degree Days 4 6  
Month to date heating degree days 53 67  
Since 1 July heating degree days 108 100  
Cooling Degree Days 0 2  
Month to date cooling degree days 67 46  
Year to date cooling degree days 3548 3101  
Growing Degree Days 11 (Base 50)    
Moisture  
Dew Point 38 °F    
Average Humidity 44    
Maximum Humidity 55    
Minimum Humidity 33    
Precipitation  
Precipitation 0.00 in 0.08 in 2.50 in (1907)
Month to date precipitation 0.03 1.38  
Year to date precipitation 38.79 29.46  
Snow  
Snow 0.00 in - - ()
Month to date snowfall 0.0  
Since 1 July snowfall 0.0  
Since 1 September snowfall 0.0  
Snow Depth 0.00 in    
Sea Level Pressure  
Sea Level Pressure 30.28 in    
Wind  
Wind Speed 5 mph (NE)    
Max Wind Speed 15 mph    
Max Gust Speed 21 mph    
Visibility 10 miles    
Events      
T = Trace of Precipitation, MM = Missing Value Source: NWS Daily Summary

Daily Weather History Graph

Daily Weather History Graph

Search for Another Location

Airport:

Trip Planner

Search our weather history database for the weather conditions in past years. The results will help you decide how hot, cold, wet, or windy it might be!

Date:

Astronomy

Nov. 16, 2012 Rise Set
Actual Time 6:59 AM CST 5:37 PM CST
Civil Twilight 6:34 AM CST 6:03 PM CST
Nautical Twilight 6:05 AM CST 6:31 PM CST
Astronomical Twilight 5:36 AM CST 7:00 PM CST
Moon 9:51 AM CST (11/16) 8:41 PM CST (11/16)
Length of Visible Light 11h 29m
Length of Day
10h 38m
Waxing Crescent, 12% of the Moon is Illuminated
Nov 16
Waxing Crescent
Nov 20
First Quarter
Nov 28
Full
Dec 6
Last Quarter
Dec 13
New

Hourly Weather History & Observations

Time (CST) Temp. Dew Point Humidity Pressure Visibility Wind Dir Wind Speed Gust Speed Precip Events Conditions
12:53 AM 57.9 °F 39.9 °F 51% 30.25 in 10.0 mi NE 3.5 mph - N/A   Overcast
1:53 AM 57.9 °F 41.0 °F 53% 30.25 in 10.0 mi Calm Calm - N/A   Overcast
2:53 AM 57.0 °F 39.0 °F 51% 30.25 in 10.0 mi Calm Calm - N/A   Overcast
3:53 AM 57.9 °F 39.0 °F 49% 30.25 in 10.0 mi NNE 3.5 mph - N/A   Overcast
4:53 AM 57.0 °F 39.0 °F 51% 30.25 in 10.0 mi North 3.5 mph - N/A   Overcast
5:53 AM 57.0 °F 39.9 °F 53% 30.26 in 10.0 mi NE 3.5 mph - N/A   Overcast
6:53 AM 57.0 °F 39.9 °F 53% 30.28 in 10.0 mi NNE 6.9 mph - N/A   Overcast
7:53 AM 55.9 °F 39.0 °F 53% 30.30 in 10.0 mi NE 6.9 mph - N/A   Overcast
8:53 AM 57.0 °F 37.9 °F 49% 30.32 in 10.0 mi NE 9.2 mph - N/A   Overcast
9:53 AM 59.0 °F 37.9 °F 46% 30.34 in 10.0 mi ENE 6.9 mph - N/A   Overcast
10:53 AM 63.0 °F 37.0 °F 38% 30.32 in 10.0 mi NE 6.9 mph - N/A   Scattered Clouds
11:53 AM 66.0 °F 39.0 °F 37% 30.30 in 10.0 mi NE 10.4 mph - N/A   Mostly Cloudy
12:53 PM 68.0 °F 39.0 °F 35% 30.27 in 10.0 mi NE 11.5 mph - N/A   Scattered Clouds
1:53 PM 69.1 °F 39.0 °F 33% 30.24 in 10.0 mi NE 8.1 mph 16.1 mph N/A   Partly Cloudy
2:53 PM 70.0 °F 39.9 °F 33% 30.24 in 10.0 mi ENE 9.2 mph - N/A   Partly Cloudy
3:53 PM 68.0 °F 39.0 °F 35% 30.24 in 10.0 mi East 10.4 mph - N/A   Partly Cloudy
4:53 PM 64.9 °F 37.9 °F 37% 30.24 in 10.0 mi East 5.8 mph - N/A   Scattered Clouds
5:53 PM 62.1 °F 37.0 °F 39% 30.25 in 10.0 mi ENE 5.8 mph - N/A   Clear
6:53 PM 57.9 °F 36.0 °F 44% 30.27 in 10.0 mi Calm Calm - N/A   Partly Cloudy
7:53 PM 57.0 °F 35.1 °F 44% 30.29 in 10.0 mi Calm Calm - N/A   Scattered Clouds
8:53 PM 55.0 °F 34.0 °F 45% 30.31 in 10.0 mi ENE 3.5 mph - N/A   Scattered Clouds
9:53 PM 53.1 °F 33.1 °F 47% 30.31 in 10.0 mi NE 3.5 mph - N/A   Mostly Cloudy
10:53 PM 52.0 °F 32.0 °F 47% 30.31 in 10.0 mi Calm Calm - N/A   Mostly Cloudy
11:53 PM 52.0 °F 32.0 °F 47% 30.32 in 10.0 mi Calm Calm - N/A   Mostly Cloudy